Location: Ferchesar
(52.6477°N, 12.4298°E)
Time: 08:31:43
(UTC+01:00)

S-56A Canister/Altair - Pass Details

Date: 15 December 2021
Orbit: 633 x 2499 km, 38.9° (Epoch: 19 January)

Event Time Altitude Azimuth Distance (km) Brightness Sun altitude
Rises 17:34:09 0° 179° (S) 6,157 12.4 -13.8°
Reaches altitude 10° 17:41:53 10° 155° (SSE) 5,115 11.7 -14.9°
Maximum altitude 17:46:57 13° 135° (SE) 4,776 11.3 -15.6°
Drops below altitude 10° 17:51:46 10° 114° (ESE) 4,819 11.1 -16.3°
Enters shadow 17:52:56 - 109° (ESE) 4,887 11.1 -16.5°
Sets 17:58:22 0° 89° (E) 5,470 - -17.3°
